Time,TemperatureF,DewpointF,PressureIn,WindDirection,WindDirectionDegrees,WindSpeedMPH,WindSpeedGustMPH,Humidity,HourlyPrecipIn,Conditions,Clouds,dailyrainin,SoftwareType,DateUTC
2013-08-02 00:11:00,87.4,87.0,29.91,North,-999,0.0,-999.0,100,-99.99,,,0.00,weatherlink.com 1.10,2013-08-02 04:11:00,
2013-08-02 00:26:00,87.4,87.0,29.91,North,-999,0.0,-999.0,100,-99.99,,,0.00,weatherlink.com 1.10,2013-08-02 04:26:00,
2013-08-02 00:57:00,87.4,87.0,29.90,North,-999,0.0,-999.0,100,-99.99,,,0.00,weatherlink.com 1.10,2013-08-02 04:57:00,
2013-08-02 01:27:00,87.4,87.0,29.89,North,-999,0.0,-999.0,100,-99.99,,,0.00,weatherlink.com 1.10,2013-08-02 05:27:00,
2013-08-02 01:42:00,87.4,87.0,29.89,North,-999,0.0,-999.0,100,-99.99,,,0.00,weatherlink.com 1.10,2013-08-02 05:42:00,
2013-08-02 02:12:00,87.4,87.0,29.88,North,-999,0.0,-999.0,100,-99.99,,,0.00,weatherlink.com 1.10,2013-08-02 06:12:00,
2013-08-02 02:27:00,87.4,87.0,29.88,North,-999,0.0,-999.0,100,-99.99,,,0.00,weatherlink.com 1.10,2013-08-02 06:27:00,
2013-08-02 02:42:00,87.4,87.0,29.88,North,-999,0.0,-999.0,100,-99.99,,,0.00,weatherlink.com 1.10,2013-08-02 06:42:00,
2013-08-02 02:57:00,87.4,87.0,29.87,North,-999,0.0,-999.0,100,-99.99,,,0.00,weatherlink.com 1.10,2013-08-02 06:57:00,
2013-08-02 03:13:00,87.4,87.0,29.86,North,-999,0.0,-999.0,100,-99.99,,,0.00,weatherlink.com 1.10,2013-08-02 07:13:00,
2013-08-02 03:28:00,87.4,87.0,29.86,North,-999,0.0,-999.0,100,-99.99,,,0.00,weatherlink.com 1.10,2013-08-02 07:28:00,
2013-08-02 03:43:00,87.4,87.0,29.86,North,-999,0.0,-999.0,100,-99.99,,,0.00,weatherlink.com 1.10,2013-08-02 07:43:00,
2013-08-02 04:42:00,87.4,87.0,29.85,North,-999,0.0,-999.0,100,-99.99,,,0.00,weatherlink.com 1.10,2013-08-02 08:42:00,
2013-08-02 04:58:00,87.4,87.0,29.85,North,-999,0.0,-999.0,100,-99.99,,,0.00,weatherlink.com 1.10,2013-08-02 08:58:00,
2013-08-02 05:27:00,87.4,87.0,29.85,North,-999,0.0,-999.0,100,-99.99,,,0.00,weatherlink.com 1.10,2013-08-02 09:27:00,
2013-08-02 05:58:00,87.4,87.0,29.86,North,-999,0.0,-999.0,100,-99.99,,,0.00,weatherlink.com 1.10,2013-08-02 09:58:00,
2013-08-02 06:28:00,87.4,87.0,29.88,North,-999,0.0,-999.0,100,-99.99,,,0.00,weatherlink.com 1.10,2013-08-02 10:28:00,
2013-08-02 06:44:00,87.4,87.0,29.88,North,-999,0.0,-999.0,100,-99.99,,,0.00,weatherlink.com 1.10,2013-08-02 10:44:00,
2013-08-02 07:13:00,87.4,87.0,29.88,North,-999,0.0,-999.0,100,-99.99,,,0.00,weatherlink.com 1.10,2013-08-02 11:13:00,
2013-08-02 07:28:00,87.4,87.0,29.88,North,-999,0.0,-999.0,100,-99.99,,,0.00,weatherlink.com 1.10,2013-08-02 11:28:00,
2013-08-02 07:44:00,87.4,87.0,29.88,North,-999,0.0,-999.0,100,-99.99,,,0.00,weatherlink.com 1.10,2013-08-02 11:44:00,
2013-08-02 08:13:00,87.4,87.0,29.88,North,-999,0.0,-999.0,100,-99.99,,,0.00,weatherlink.com 1.10,2013-08-02 12:13:00,
2013-08-02 08:44:00,87.4,87.0,29.89,North,-999,0.0,-999.0,100,-99.99,,,0.00,weatherlink.com 1.10,2013-08-02 12:44:00,
2013-08-02 08:59:00,87.4,87.0,29.89,North,-999,0.0,-999.0,100,-99.99,,,0.00,weatherlink.com 1.10,2013-08-02 12:59:00,
2013-08-02 09:14:00,87.4,87.0,29.89,North,-999,0.0,-999.0,100,-99.99,,,0.00,weatherlink.com 1.10,2013-08-02 13:14:00,
2013-08-02 09:29:00,87.4,87.0,29.90,North,-999,0.0,-999.0,100,-99.99,,,0.00,weatherlink.com 1.10,2013-08-02 13:29:00,
2013-08-02 10:29:00,87.4,87.0,29.91,North,-999,0.0,-999.0,100,-99.99,,,0.00,weatherlink.com 1.10,2013-08-02 14:29:00,
2013-08-02 10:59:00,87.4,87.0,29.92,North,-999,0.0,-999.0,100,-99.99,,,0.00,weatherlink.com 1.10,2013-08-02 14:59:00,
2013-08-02 11:29:00,87.4,87.0,29.92,North,-999,0.0,-999.0,100,-99.99,,,0.00,weatherlink.com 1.10,2013-08-02 15:29:00,
2013-08-02 11:59:00,87.4,87.0,29.92,North,-999,0.0,-999.0,100,-99.99,,,0.00,weatherlink.com 1.10,2013-08-02 15:59:00,
2013-08-02 12:15:00,87.4,87.0,29.93,North,-999,0.0,-999.0,100,-99.99,,,0.00,weatherlink.com 1.10,2013-08-02 16:15:00,
2013-08-02 13:15:00,87.4,87.0,29.93,North,-999,0.0,-999.0,100,-99.99,,,0.00,weatherlink.com 1.10,2013-08-02 17:15:00,
2013-08-02 13:45:00,87.4,87.0,29.92,North,-999,0.0,-999.0,100,-99.99,,,0.00,weatherlink.com 1.10,2013-08-02 17:45:00,
2013-08-02 14:30:00,87.4,87.0,29.91,North,-999,0.0,-999.0,100,-99.99,,,0.00,weatherlink.com 1.10,2013-08-02 18:30:00,
2013-08-02 14:45:00,87.4,87.0,29.92,North,-999,0.0,-999.0,100,-99.99,,,0.00,weatherlink.com 1.10,2013-08-02 18:45:00,
2013-08-02 15:00:00,87.4,87.0,29.92,North,-999,0.0,-999.0,100,-99.99,,,0.00,weatherlink.com 1.10,2013-08-02 19:00:00,
2013-08-02 15:16:00,87.4,87.0,29.91,North,-999,0.0,-999.0,100,-99.99,,,0.00,weatherlink.com 1.10,2013-08-02 19:16:00,
2013-08-02 15:30:00,87.4,87.0,29.91,North,-999,0.0,-999.0,100,-99.99,,,0.00,weatherlink.com 1.10,2013-08-02 19:30:00,
2013-08-02 15:50:00,87.4,87.0,29.90,North,-999,0.0,-999.0,100,-99.99,,,0.00,weatherlink.com 1.10,2013-08-02 19:50:00,
2013-08-02 16:01:00,87.4,87.0,29.89,North,-999,0.0,-999.0,100,-99.99,,,0.00,weatherlink.com 1.10,2013-08-02 20:01:00,
2013-08-02 16:16:00,87.4,87.0,29.89,North,-999,0.0,-999.0,100,-99.99,,,0.00,weatherlink.com 1.10,2013-08-02 20:16:00,
2013-08-02 17:01:00,87.4,87.0,29.88,North,-999,0.0,-999.0,100,-99.99,,,0.00,weatherlink.com 1.10,2013-08-02 21:01:00,
2013-08-02 17:16:00,87.4,87.0,29.89,North,-999,0.0,-999.0,100,-99.99,,,0.00,weatherlink.com 1.10,2013-08-02 21:16:00,
2013-08-02 17:31:00,87.4,87.0,29.89,North,-999,0.0,-999.0,100,-99.99,,,0.00,weatherlink.com 1.10,2013-08-02 21:31:00,
2013-08-02 17:47:00,87.4,87.0,29.88,North,-999,0.0,-999.0,100,-99.99,,,0.00,weatherlink.com 1.10,2013-08-02 21:47:00,
2013-08-02 18:01:00,87.4,87.0,29.88,North,-999,0.0,-999.0,100,-99.99,,,0.00,weatherlink.com 1.10,2013-08-02 22:01:00,
2013-08-02 18:16:00,87.4,87.0,29.88,North,-999,0.0,-999.0,100,-99.99,,,0.00,weatherlink.com 1.10,2013-08-02 22:16:00,
2013-08-02 18:32:00,87.4,87.0,29.88,North,-999,0.0,-999.0,100,-99.99,,,0.00,weatherlink.com 1.10,2013-08-02 22:32:00,
2013-08-02 18:47:00,87.4,87.0,29.89,North,-999,0.0,-999.0,100,-99.99,,,0.00,weatherlink.com 1.10,2013-08-02 22:47:00,
2013-08-02 19:02:00,87.4,87.0,29.89,North,-999,0.0,-999.0,100,-99.99,,,0.00,weatherlink.com 1.10,2013-08-02 23:02:00,
2013-08-02 19:33:00,87.4,87.0,29.89,North,-999,0.0,-999.0,100,-99.99,,,0.00,weatherlink.com 1.10,2013-08-02 23:33:00,
2013-08-02 19:47:00,87.4,87.0,29.89,North,-999,0.0,-999.0,100,-99.99,,,0.00,weatherlink.com 1.10,2013-08-02 23:47:00,
2013-08-02 20:02:00,87.4,87.0,29.89,North,-999,0.0,-999.0,100,-99.99,,,0.00,weatherlink.com 1.10,2013-08-03 00:02:00,
2013-08-02 20:47:00,87.4,87.0,29.91,North,-999,0.0,-999.0,100,-99.99,,,0.00,weatherlink.com 1.10,2013-08-03 00:47:00,
2013-08-02 21:03:00,87.4,87.0,29.91,North,-999,0.0,-999.0,100,-99.99,,,0.00,weatherlink.com 1.10,2013-08-03 01:03:00,
2013-08-02 21:18:00,87.4,87.0,29.91,North,-999,0.0,-999.0,100,-99.99,,,0.00,weatherlink.com 1.10,2013-08-03 01:18:00,
2013-08-02 21:33:00,82.2,82.0,29.92,West,259,3.0,-999.0,100,-99.99,,,0.00,weatherlink.com 1.10,2013-08-03 01:33:00,
2013-08-02 21:48:00,82.0,82.0,29.93,WSW,257,3.0,-999.0,100,-99.99,,,0.00,weatherlink.com 1.10,2013-08-03 01:48:00,
2013-08-02 22:03:00,81.8,82.0,29.93,WSW,257,4.0,-999.0,100,-99.99,,,0.00,weatherlink.com 1.10,2013-08-03 02:03:00,
2013-08-02 22:22:00,82.2,82.0,29.94,WSW,247,4.0,-999.0,100,-99.99,,,0.00,weatherlink.com 1.10,2013-08-03 02:22:00,
2013-08-02 22:33:00,82.0,82.0,29.94,West,260,4.0,-999.0,100,-99.99,,,0.00,weatherlink.com 1.10,2013-08-03 02:33:00,
2013-08-02 22:48:00,82.2,82.0,29.93,WSW,250,6.0,-999.0,100,-99.99,,,0.00,weatherlink.com 1.10,2013-08-03 02:48:00,
2013-08-02 23:03:00,82.0,82.0,29.92,North,-999,0.0,-999.0,100,-99.99,,,0.00,weatherlink.com 1.10,2013-08-03 03:03:00,
2013-08-02 23:33:00,82.0,82.0,29.93,North,-999,0.0,-999.0,100,-99.99,,,0.00,weatherlink.com 1.10,2013-08-03 03:33:00,
2013-08-02 23:48:00,82.0,82.0,29.93,North,-999,0.0,-999.0,100,-99.99,,,0.00,weatherlink.com 1.10,2013-08-03 03:48:00,